Time,TemperatureF,DewpointF,PressureIn,WindDirection,WindDirectionDegrees,WindSpeedMPH,WindSpeedGustMPH,Humidity,HourlyPrecipIn,Conditions,Clouds,dailyrainin,SoftwareType,DateUTC
2013-03-03 00:01:00,35.0,19.0,30.11,SSE,157,0.0,-999.0,52,-99.99,,,-99.99,,2013-03-03 06:01:00,
2013-03-03 00:11:00,35.0,19.0,30.11,SSE,157,0.0,-999.0,52,-99.99,,,-99.99,,2013-03-03 06:11:00,
2013-03-03 00:21:00,34.0,19.0,30.10,SSE,157,0.0,-999.0,54,-99.99,,,-99.99,,2013-03-03 06:21:00,
2013-03-03 00:31:00,34.0,19.0,30.09,SSE,157,0.0,-999.0,54,-99.99,,,-99.99,,2013-03-03 06:31:00,
2013-03-03 00:42:00,34.0,19.0,30.09,SSE,157,0.0,-999.0,54,-99.99,,,-99.99,,2013-03-03 06:42:00,
2013-03-03 00:52:00,34.0,20.0,30.09,SSE,157,0.0,-999.0,55,-99.99,,,-99.99,,2013-03-03 06:52:00,
2013-03-03 01:01:00,34.0,20.0,30.09,SSE,157,0.0,-999.0,56,-99.99,,,-99.99,,2013-03-03 07:01:00,
2013-03-03 01:11:00,34.0,20.0,30.09,SSE,157,0.0,-999.0,56,-99.99,,,-99.99,,2013-03-03 07:11:00,
2013-03-03 01:21:00,34.0,20.0,30.09,SSE,155,0.0,-999.0,56,-99.99,,,-99.99,,2013-03-03 07:21:00,
2013-03-03 01:31:00,33.0,19.0,30.09,SSE,155,0.0,-999.0,56,-99.99,,,-99.99,,2013-03-03 07:31:00,
2013-03-03 01:42:00,33.0,19.0,30.09,SSE,155,0.0,-999.0,56,-99.99,,,-99.99,,2013-03-03 07:42:00,
2013-03-03 01:52:00,34.0,20.0,30.09,South,174,0.0,-999.0,55,-99.99,,,-99.99,,2013-03-03 07:52:00,
2013-03-03 02:01:00,33.0,19.0,30.09,South,174,0.0,-999.0,56,-99.99,,,-99.99,,2013-03-03 08:01:00,
2013-03-03 02:11:00,33.0,19.0,30.09,South,174,0.0,-999.0,56,-99.99,,,-99.99,,2013-03-03 08:11:00,
2013-03-03 02:21:00,33.0,19.0,30.09,South,174,0.0,-999.0,57,-99.99,,,-99.99,,2013-03-03 08:21:00,
2013-03-03 02:31:00,33.0,19.0,30.07,South,174,0.0,-999.0,57,-99.99,,,-99.99,,2013-03-03 08:31:00,
2013-03-03 02:41:00,33.0,19.0,30.07,South,174,0.0,-999.0,57,-99.99,,,-99.99,,2013-03-03 08:41:00,
2013-03-03 02:54:00,33.0,20.0,30.06,SSE,164,0.0,-999.0,58,-99.99,,,-99.99,,2013-03-03 08:54:00,
2013-03-03 03:01:00,33.0,20.0,30.06,SSE,162,0.0,-999.0,59,-99.99,,,-99.99,,2013-03-03 09:01:00,
2013-03-03 03:11:00,33.0,20.0,30.06,SSE,162,0.0,-999.0,59,-99.99,,,-99.99,,2013-03-03 09:11:00,
2013-03-03 03:21:00,33.0,20.0,30.05,SSE,161,0.0,-999.0,59,-99.99,,,-99.99,,2013-03-03 09:21:00,
2013-03-03 03:32:00,33.0,20.0,30.04,SSE,162,0.0,-999.0,59,-99.99,,,-99.99,,2013-03-03 09:32:00,
2013-03-03 03:41:00,33.0,20.0,30.04,SSE,162,0.0,-999.0,59,-99.99,,,-99.99,,2013-03-03 09:41:00,
2013-03-03 03:52:00,33.0,20.0,30.03,SSE,162,0.0,-999.0,59,-99.99,,,-99.99,,2013-03-03 09:52:00,
2013-03-03 04:01:00,33.0,20.0,30.04,SSE,162,0.0,-999.0,59,-99.99,,,-99.99,,2013-03-03 10:01:00,
2013-03-03 04:11:00,33.0,20.0,30.04,SSE,162,0.0,-999.0,59,-99.99,,,-99.99,,2013-03-03 10:11:00,
2013-03-03 04:21:00,32.0,20.0,30.04,SSE,162,0.0,-999.0,61,-99.99,,,-99.99,,2013-03-03 10:21:00,
2013-03-03 04:32:00,32.0,20.0,30.04,South,174,0.0,-999.0,62,-99.99,,,-99.99,,2013-03-03 10:32:00,
2013-03-03 04:42:00,32.0,20.0,30.04,South,174,0.0,-999.0,62,-99.99,,,-99.99,,2013-03-03 10:42:00,
2013-03-03 04:52:00,33.0,21.0,30.04,South,176,0.0,-999.0,60,-99.99,,,-99.99,,2013-03-03 10:52:00,
2013-03-03 05:01:00,33.0,21.0,30.03,South,178,0.0,-999.0,60,-99.99,,,-99.99,,2013-03-03 11:01:00,
2013-03-03 05:11:00,33.0,21.0,30.03,South,178,0.0,-999.0,60,-99.99,,,-99.99,,2013-03-03 11:11:00,
2013-03-03 05:21:00,33.0,21.0,30.03,South,171,0.0,-999.0,61,-99.99,,,-99.99,,2013-03-03 11:21:00,
2013-03-03 05:32:00,33.0,21.0,30.03,SE,143,0.0,-999.0,62,-99.99,,,-99.99,,2013-03-03 11:32:00,
2013-03-03 05:42:00,33.0,21.0,30.03,SE,143,0.0,-999.0,62,-99.99,,,-99.99,,2013-03-03 11:42:00,
2013-03-03 05:52:00,32.0,20.0,30.02,SSE,155,0.0,-999.0,62,-99.99,,,-99.99,,2013-03-03 11:52:00,
2013-03-03 06:01:00,32.0,21.0,30.01,ESE,114,0.0,-999.0,63,-99.99,,,-99.99,,2013-03-03 12:01:00,
2013-03-03 06:11:00,32.0,21.0,30.01,ESE,114,0.0,-999.0,63,-99.99,,,-99.99,,2013-03-03 12:11:00,
2013-03-03 06:21:00,32.0,22.0,30.01,SSE,148,0.0,-999.0,65,-99.99,,,-99.99,,2013-03-03 12:21:00,
2013-03-03 06:32:00,32.0,22.0,30.02,SSE,148,0.0,-999.0,66,-99.99,,,-99.99,,2013-03-03 12:32:00,
2013-03-03 06:42:00,32.0,22.0,30.02,SSE,148,0.0,-999.0,66,-99.99,,,-99.99,,2013-03-03 12:42:00,
2013-03-03 06:53:00,32.0,22.0,30.01,SE,131,0.0,-999.0,67,-99.99,,,-99.99,,2013-03-03 12:53:00,
2013-03-03 07:01:00,31.0,21.0,30.01,SE,131,0.0,-999.0,67,-99.99,,,-99.99,,2013-03-03 13:01:00,
2013-03-03 07:11:00,31.0,21.0,30.01,SE,131,0.0,-999.0,67,-99.99,,,-99.99,,2013-03-03 13:11:00,
2013-03-03 07:21:00,31.0,21.0,30.01,SE,136,0.0,-999.0,67,-99.99,,,-99.99,,2013-03-03 13:21:00,
2013-03-03 07:32:00,31.0,21.0,30.01,SSE,148,0.0,-999.0,67,-99.99,,,-99.99,,2013-03-03 13:32:00,
2013-03-03 07:42:00,31.0,21.0,30.01,SSE,148,0.0,-999.0,67,-99.99,,,-99.99,,2013-03-03 13:42:00,
2013-03-03 07:52:00,33.0,23.0,30.00,SE,141,0.0,-999.0,65,-99.99,,,-99.99,,2013-03-03 13:52:00,
2013-03-03 08:02:00,34.0,22.0,30.00,SE,138,0.0,-999.0,62,-99.99,,,-99.99,,2013-03-03 14:02:00,
2013-03-03 08:11:00,34.0,22.0,30.00,SE,138,0.0,-999.0,62,-99.99,,,-99.99,,2013-03-03 14:11:00,
2013-03-03 08:21:00,35.0,22.0,30.00,SE,141,2.0,-999.0,58,-99.99,,,-99.99,,2013-03-03 14:21:00,
2013-03-03 08:32:00,36.0,21.0,30.00,SSE,162,2.0,-999.0,55,-99.99,,,-99.99,,2013-03-03 14:32:00,
2013-03-03 08:42:00,36.0,21.0,30.00,SSE,162,2.0,-999.0,55,-99.99,,,-99.99,,2013-03-03 14:42:00,
2013-03-03 08:52:00,38.0,22.0,30.01,SSW,198,5.0,-999.0,51,-99.99,,,-99.99,,2013-03-03 14:52:00,
2013-03-03 09:01:00,38.0,21.0,30.00,South,175,6.0,-999.0,49,-99.99,,,-99.99,,2013-03-03 15:01:00,
2013-03-03 09:11:00,38.0,21.0,30.00,South,175,6.0,-999.0,49,-99.99,,,-99.99,,2013-03-03 15:11:00,
2013-03-03 09:22:00,40.0,22.0,29.99,South,171,4.0,-999.0,48,-99.99,,,-99.99,,2013-03-03 15:22:00,
2013-03-03 09:32:00,40.0,21.0,29.99,South,191,5.0,-999.0,47,-99.99,,,-99.99,,2013-03-03 15:32:00,
2013-03-03 09:42:00,40.0,21.0,29.99,South,191,5.0,-999.0,47,-99.99,,,-99.99,,2013-03-03 15:42:00,
2013-03-03 09:52:00,42.0,23.0,29.98,South,174,3.0,-999.0,46,-99.99,,,-99.99,,2013-03-03 15:52:00,
2013-03-03 10:01:00,43.0,22.0,29.97,SSE,167,5.0,-999.0,43,-99.99,,,-99.99,,2013-03-03 16:01:00,
2013-03-03 10:12:00,43.0,22.0,29.97,SSE,167,5.0,-999.0,43,-99.99,,,-99.99,,2013-03-03 16:12:00,
2013-03-03 10:21:00,45.0,22.0,29.96,SW,226,5.0,-999.0,40,-99.99,,,-99.99,,2013-03-03 16:21:00,
2013-03-03 10:31:00,46.0,21.0,29.96,South,181,5.0,-999.0,37,-99.99,,,-99.99,,2013-03-03 16:31:00,
2013-03-03 10:42:00,46.0,21.0,29.96,South,181,5.0,-999.0,37,-99.99,,,-99.99,,2013-03-03 16:42:00,
2013-03-03 10:52:00,48.0,22.0,29.95,SSW,200,5.0,-999.0,36,-99.99,,,-99.99,,2013-03-03 16:52:00,
2013-03-03 11:01:00,49.0,24.0,29.93,South,178,6.0,-999.0,37,-99.99,,,-99.99,,2013-03-03 17:01:00,
2013-03-03 11:11:00,51.0,24.0,29.92,South,179,5.0,-999.0,34,-99.99,,,-99.99,,2013-03-03 17:11:00,
2013-03-03 11:22:00,51.0,24.0,29.92,South,179,5.0,-999.0,34,-99.99,,,-99.99,,2013-03-03 17:22:00,
2013-03-03 11:32:00,52.0,23.0,29.91,SW,217,5.0,-999.0,32,-99.99,,,-99.99,,2013-03-03 17:32:00,
2013-03-03 11:42:00,52.0,23.0,29.91,SW,217,5.0,-999.0,32,-99.99,,,-99.99,,2013-03-03 17:42:00,
2013-03-03 11:52:00,52.0,22.0,29.90,South,176,6.0,-999.0,31,-99.99,,,-99.99,,2013-03-03 17:52:00,
2013-03-03 12:01:00,53.0,23.0,29.88,South,184,4.0,-999.0,31,-99.99,,,-99.99,,2013-03-03 18:01:00,
2013-03-03 12:11:00,53.0,23.0,29.88,South,184,4.0,-999.0,31,-99.99,,,-99.99,,2013-03-03 18:11:00,
2013-03-03 12:21:00,55.0,23.0,29.88,SSW,205,5.0,-999.0,29,-99.99,,,-99.99,,2013-03-03 18:21:00,
2013-03-03 12:32:00,56.0,25.0,29.87,SSW,195,4.0,-999.0,30,-99.99,,,-99.99,,2013-03-03 18:32:00,
2013-03-03 12:42:00,56.0,25.0,29.87,SSW,195,4.0,-999.0,30,-99.99,,,-99.99,,2013-03-03 18:42:00,
2013-03-03 12:52:00,57.0,24.0,29.86,South,172,5.0,-999.0,28,-99.99,,,-99.99,,2013-03-03 18:52:00,
2013-03-03 13:01:00,57.0,23.0,29.85,South,178,5.0,-999.0,27,-99.99,,,-99.99,,2013-03-03 19:01:00,
2013-03-03 13:11:00,59.0,25.0,29.84,SSW,193,3.0,-999.0,27,-99.99,,,-99.99,,2013-03-03 19:11:00,
2013-03-03 13:21:00,59.0,25.0,29.84,SSW,193,3.0,-999.0,27,-99.99,,,-99.99,,2013-03-03 19:21:00,
2013-03-03 13:32:00,60.0,26.0,29.82,SSW,200,4.0,-999.0,27,-99.99,,,-99.99,,2013-03-03 19:32:00,
2013-03-03 13:42:00,60.0,26.0,29.82,SSW,200,4.0,-999.0,27,-99.99,,,-99.99,,2013-03-03 19:42:00,
2013-03-03 13:52:00,60.0,27.0,29.80,SSW,200,4.0,-999.0,28,-99.99,,,-99.99,,2013-03-03 19:52:00,
2013-03-03 14:01:00,61.0,27.0,29.80,SSW,202,3.0,-999.0,27,-99.99,,,-99.99,,2013-03-03 20:01:00,
2013-03-03 14:11:00,61.0,27.0,29.80,SSW,202,3.0,-999.0,27,-99.99,,,-99.99,,2013-03-03 20:11:00,
2013-03-03 14:21:00,61.0,27.0,29.79,SSE,165,4.0,-999.0,27,-99.99,,,-99.99,,2013-03-03 20:21:00,
2013-03-03 14:32:00,62.0,28.0,29.78,SSW,210,3.0,-999.0,27,-99.99,,,-99.99,,2013-03-03 20:32:00,
2013-03-03 14:42:00,62.0,28.0,29.78,SSW,210,3.0,-999.0,27,-99.99,,,-99.99,,2013-03-03 20:42:00,
2013-03-03 14:53:00,62.0,27.0,29.78,SE,145,5.0,-999.0,26,-99.99,,,-99.99,,2013-03-03 20:53:00,
2013-03-03 15:01:00,63.0,29.0,29.76,South,179,4.0,-999.0,27,-99.99,,,-99.99,,2013-03-03 21:01:00,
2013-03-03 15:11:00,63.0,29.0,29.76,South,179,4.0,-999.0,27,-99.99,,,-99.99,,2013-03-03 21:11:00,
2013-03-03 15:22:00,63.0,28.0,29.76,SW,215,4.0,-999.0,26,-99.99,,,-99.99,,2013-03-03 21:22:00,
2013-03-03 15:32:00,62.0,28.0,29.76,SSW,195,5.0,-999.0,27,-99.99,,,-99.99,,2013-03-03 21:32:00,
2013-03-03 15:41:00,62.0,28.0,29.76,SSW,195,5.0,-999.0,27,-99.99,,,-99.99,,2013-03-03 21:41:00,
2013-03-03 15:52:00,61.0,28.0,29.75,South,169,5.0,-999.0,28,-99.99,,,-99.99,,2013-03-03 21:52:00,
2013-03-03 16:01:00,61.0,27.0,29.74,South,189,4.0,-999.0,27,-99.99,,,-99.99,,2013-03-03 22:01:00,
2013-03-03 16:11:00,61.0,27.0,29.74,South,189,4.0,-999.0,27,-99.99,,,-99.99,,2013-03-03 22:11:00,
2013-03-03 16:22:00,62.0,28.0,29.73,South,174,4.0,-999.0,27,-99.99,,,-99.99,,2013-03-03 22:22:00,
2013-03-03 16:32:00,63.0,29.0,29.72,SSW,209,5.0,-999.0,28,-99.99,,,-99.99,,2013-03-03 22:32:00,
2013-03-03 16:42:00,63.0,29.0,29.72,SSW,209,5.0,-999.0,28,-99.99,,,-99.99,,2013-03-03 22:42:00,
2013-03-03 16:52:00,63.0,29.0,29.72,SSW,199,3.0,-999.0,28,-99.99,,,-99.99,,2013-03-03 22:52:00,
2013-03-03 17:01:00,62.0,29.0,29.71,SE,143,4.0,-999.0,28,-99.99,,,-99.99,,2013-03-03 23:01:00,
2013-03-03 17:11:00,62.0,29.0,29.71,SE,143,4.0,-999.0,28,-99.99,,,-99.99,,2013-03-03 23:11:00,
2013-03-03 17:21:00,61.0,28.0,29.70,SSE,155,4.0,-999.0,28,-99.99,,,-99.99,,2013-03-03 23:21:00,
2013-03-03 17:31:00,61.0,28.0,29.70,South,181,5.0,-999.0,28,-99.99,,,-99.99,,2013-03-03 23:31:00,
2013-03-03 17:41:00,61.0,28.0,29.70,South,181,5.0,-999.0,28,-99.99,,,-99.99,,2013-03-03 23:41:00,
2013-03-03 17:52:00,60.0,28.0,29.70,ESE,109,5.0,-999.0,30,-99.99,,,-99.99,,2013-03-03 23:52:00,
2013-03-03 18:01:00,60.0,28.0,29.69,SE,134,3.0,-999.0,30,-99.99,,,-99.99,,2013-03-04 00:01:00,
2013-03-03 18:11:00,60.0,28.0,29.69,SE,134,3.0,-999.0,30,-99.99,,,-99.99,,2013-03-04 00:11:00,
2013-03-03 18:21:00,59.0,29.0,29.70,SE,137,3.0,-999.0,32,-99.99,,,-99.99,,2013-03-04 00:21:00,
2013-03-03 18:32:00,58.0,28.0,29.70,SSE,148,3.0,-999.0,32,-99.99,,,-99.99,,2013-03-04 00:32:00,
2013-03-03 18:42:00,58.0,28.0,29.70,SSE,148,3.0,-999.0,32,-99.99,,,-99.99,,2013-03-04 00:42:00,
2013-03-03 18:52:00,58.0,30.0,29.70,SSE,152,3.0,-999.0,34,-99.99,,,-99.99,,2013-03-04 00:52:00,
2013-03-03 19:01:00,58.0,30.0,29.70,South,189,3.0,-999.0,34,-99.99,,,-99.99,,2013-03-04 01:01:00,
2013-03-03 19:11:00,58.0,30.0,29.70,South,189,3.0,-999.0,34,-99.99,,,-99.99,,2013-03-04 01:11:00,
2013-03-03 19:21:00,57.0,30.0,29.70,ESE,110,2.0,-999.0,35,-99.99,,,-99.99,,2013-03-04 01:21:00,
2013-03-03 19:32:00,57.0,30.0,29.70,SSE,158,3.0,-999.0,36,-99.99,,,-99.99,,2013-03-04 01:32:00,
2013-03-03 19:42:00,57.0,30.0,29.70,SSE,158,3.0,-999.0,36,-99.99,,,-99.99,,2013-03-04 01:42:00,
2013-03-03 19:52:00,57.0,31.0,29.69,SSE,164,3.0,-999.0,37,-99.99,,,-99.99,,2013-03-04 01:52:00,
2013-03-03 20:01:00,56.0,31.0,29.68,ESE,123,3.0,-999.0,38,-99.99,,,-99.99,,2013-03-04 02:01:00,
2013-03-03 20:11:00,56.0,31.0,29.68,South,178,4.0,-999.0,38,-99.99,,,-99.99,,2013-03-04 02:11:00,
2013-03-03 20:22:00,56.0,31.0,29.68,South,178,4.0,-999.0,38,-99.99,,,-99.99,,2013-03-04 02:22:00,
2013-03-03 20:32:00,56.0,31.0,29.67,ENE,75,4.0,-999.0,39,-99.99,,,-99.99,,2013-03-04 02:32:00,
2013-03-03 20:42:00,56.0,31.0,29.67,ENE,75,4.0,-999.0,39,-99.99,,,-99.99,,2013-03-04 02:42:00,
2013-03-03 20:52:00,56.0,32.0,29.66,SSE,148,4.0,-999.0,40,-99.99,,,-99.99,,2013-03-04 02:52:00,
2013-03-03 21:01:00,55.0,31.0,29.66,SE,136,4.0,-999.0,40,-99.99,,,-99.99,,2013-03-04 03:01:00,
2013-03-03 21:11:00,55.0,31.0,29.66,SE,136,4.0,-999.0,40,-99.99,,,-99.99,,2013-03-04 03:11:00,
2013-03-03 21:21:00,55.0,32.0,29.67,SSE,155,3.0,-999.0,41,-99.99,,,-99.99,,2013-03-04 03:21:00,
2013-03-03 21:32:00,55.0,32.0,29.66,South,169,3.0,-999.0,41,-99.99,,,-99.99,,2013-03-04 03:32:00,
2013-03-03 21:42:00,54.0,31.0,29.66,ESE,102,3.0,-999.0,42,-99.99,,,-99.99,,2013-03-04 03:42:00,
2013-03-03 21:52:00,54.0,31.0,29.66,ESE,102,3.0,-999.0,42,-99.99,,,-99.99,,2013-03-04 03:52:00,
2013-03-03 22:01:00,54.0,31.0,29.65,ESE,117,3.0,-999.0,42,-99.99,,,-99.99,,2013-03-04 04:01:00,
2013-03-03 22:11:00,54.0,31.0,29.65,ESE,117,3.0,-999.0,42,-99.99,,,-99.99,,2013-03-04 04:11:00,
2013-03-03 22:22:00,54.0,32.0,29.65,SE,136,3.0,-999.0,43,-99.99,,,-99.99,,2013-03-04 04:22:00,
2013-03-03 22:32:00,53.0,32.0,29.63,South,181,2.0,-999.0,44,-99.99,,,-99.99,,2013-03-04 04:32:00,
2013-03-03 22:42:00,53.0,32.0,29.63,South,181,2.0,-999.0,44,-99.99,,,-99.99,,2013-03-04 04:42:00,
2013-03-03 22:51:00,53.0,32.0,29.63,South,185,3.0,-999.0,44,-99.99,,,-99.99,,2013-03-04 04:51:00,
2013-03-03 23:01:00,53.0,32.0,29.62,ESE,117,4.0,-999.0,44,-99.99,,,-99.99,,2013-03-04 05:01:00,
2013-03-03 23:11:00,53.0,32.0,29.62,ESE,117,4.0,-999.0,44,-99.99,,,-99.99,,2013-03-04 05:11:00,
2013-03-03 23:22:00,53.0,32.0,29.61,ESE,123,3.0,-999.0,45,-99.99,,,-99.99,,2013-03-04 05:22:00,
2013-03-03 23:31:00,52.0,31.0,29.60,SSE,160,3.0,-999.0,45,-99.99,,,-99.99,,2013-03-04 05:31:00,
2013-03-03 23:42:00,52.0,32.0,29.60,South,171,3.0,-999.0,46,-99.99,,,-99.99,,2013-03-04 05:42:00,
2013-03-03 23:52:00,52.0,32.0,29.60,South,171,3.0,-999.0,46,-99.99,,,-99.99,,2013-03-04 05:52:00,